Regional Weather Roundup
Issued by NWS

Home | Current Version | Previous Version | Text Only | Print | Product List | Glossary Off
Versions: 1 2 3 4 5 6 7 8 9 10 11 12 13 14 15 16 17 18 19 20 21 22 23 24 25 26 27 28 29 30 31 32 33 34 35 36 37 38 39 40 41 42 43 44 45 46 47 48 49 50

000
ASUS43 KFSD 201802
RWRSD

WEATHER ROUNDUP FOR SOUTH DAKOTA
NATIONAL WEATHER SERVICE SIOUX FALLS SD
100 PM CDT FRI APR 20 2018

NOTE: "FAIR" INDICATES FEW OR NO CLOUDS BELOW 12,000 FEET WITH NO
SIGNIFICANT WEATHER AND/OR OBSTRUCTIONS TO VISIBILITY.


SDZ001>005-009-010-012>017-201900-
NORTHWEST AND NORTH CENTRAL SOUTH DAKOTA

CITY           SKY/WX    TMP DP  RH WIND       PRES   REMARKS
BUFFALO          N/A     50  30  46 SE18      30.08S
FAITH            N/A     49  33  54 SE20      30.19S
MOBRIDGE       PTSUNNY   53  33  46 S17       30.26F
$$

SDZ012>016-024>037-041>051-057-063-072>074-201900-
SOUTHWEST AND SOUTH CENTRAL SOUTH DAKOTA

CITY           SKY/WX    TMP DP  RH WIND       PRES   REMARKS
RAPID CTY ARPT MOSUNNY   56  31  38 S15G23    30.14S
PIERRE         CLOUDY    51  35  54 SE16      30.27F
CUSTER         MOSUNNY   45  28  51 SE17G23   30.11R
ELLSWORTH AFB  PTSUNNY   53  31  43 S20G25    30.13S
PHILIP         CLOUDY    54  31  41 SE18      30.20F
PINE RIDGE     LGT RAIN  43  37  79 SE9       30.16R
SPEARFISH      FAIR      50  32  50 E13       30.09F
WINNER         MOCLDY    48  33  56 SE13      30.27F
$$

SDZ004>011-016>023-039-040-201900-
NORTHEAST SOUTH DAKOTA

CITY           SKY/WX    TMP DP  RH WIND       PRES   REMARKS
ABERDEEN       PTSUNNY   53  36  52 SE10      30.37F
WATERTOWN      MOSUNNY   48  37  65 SE10      30.37F
BROOKINGS      MOSUNNY   43  33  68 SE9       30.40F
SISSETON         N/A     50  36  58 SE8       30.40F
$$

SDZ017-020-022-023-036>040-048>070-201900-
SOUTHEAST SOUTH DAKOTA

CITY           SKY/WX    TMP DP  RH WIND       PRES   REMARKS
SIOUX FALLS    CLOUDY    47  32  56 SE7       30.40F
HURON          CLOUDY    43  32  65 SE13      30.36F
CHAMBERLAIN    CLOUDY    46  37  71 SE13      30.31F
MITCHELL       CLOUDY    42  35  76 SE9       30.37F
YANKTON        PTSUNNY   50  36  58 SE9       30.37F
$$

ABBREVIATIONS USED IN REMARKS
   TC - TEMPERATURE IN CELSIUS
  WCI - WIND CHILL INDEX
   HX - HEAT INDEX
  VSB - VISIBILITY





USA.gov is the U.S. government's official web portal to all federal, state and local government web resources and services.